Regional Weather Roundup
Issued by NWS Albany, NY

Home | Current Version | Previous Version | Text Only | Print | Product List | Glossary On
Versions: 1 2 3 4 5 6 7 8 9 10 11 12 13 14 15 16 17 18 19 20 21 22 23 24 25 26 27
000
ASUS41 KALY 281910
RWRALY

NEW YORK STATE HOURLY WEATHER ROUNDUP
NATIONAL WEATHER SERVICE ALBANY NY
300 PM EDT SUN MAY 28 2017

NOTE: "FAIR" INDICATES FEW OR NO CLOUDS BELOW 12,000 FEET WITH NO
SIGNIFICANT WEATHER AND/OR NO OBSTRUCTIONS TO VISIBILITY.

NYZ032-033-038>043-046>054-057>066-NYZ062>081-082-084-282000-
EAST


CITY           SKY/WX    TMP DP  RH WIND       PRES   REMARKS
ALBANY         CLOUDY    73  56  54 S10       29.90F
GLENS FALLS    CLOUDY    72  56  57 S9        29.90
POUGHKEEPSIE   CLOUDY    71  57  61 S7        29.90F
NEWBURGH       CLOUDY    70  61  73 SE12      29.93F
MONTGOMERY     CLOUDY    72  58  61 S6        29.90F
WHITE PLAINS   PTSUNNY   68  56  65 SE13      29.94F
ISLIP          CLOUDY    65  54  67 SE10      29.97F
NEW YORK CITY  CLOUDY    69  54  58 S9G18     29.93F
CENTRAL PARK   CLOUDY    69  55  60 MISG      29.96F
$$

NYZ005>009-017-018-044>046-055-056-282000-
CENTRAL


CITY           SKY/WX    TMP DP  RH WIND       PRES   REMARKS
FULTON         CLOUDY    74  57  55 SE8       29.82F
SYRACUSE       PTSUNNY   74  58  57 VRB6      29.82F
ROME           CLOUDY    74  59  59 E8        29.87F
ELMIRA         CLOUDY    73  55  53 SW10      29.82F
BINGHAMTON     MOSUNNY   71  53  52 S13       29.87F
MONTICELLO     CLOUDY    68  57  68 S12       29.95R
$$

NYZ026>034-041>043-087-282000-
NORTH


CITY           SKY/WX    TMP DP  RH WIND       PRES   REMARKS
WATERTOWN      PTSUNNY   74  58  57 VRB5      29.84F
FORT DRUM      NOT AVBL
OGDENSBURG     FAIR      79  53  39 S3        29.84F
MASSENA        PTSUNNY   76  53  44 VRB3      29.86F
SARANAC LAKE   CLOUDY    71  45  39 SW10      29.89S
PLATTSBURGH    MOSUNNY   75  50  41 SE10      29.88R
$$

NYZ001>004-010>016-019>021-085-282000-
WEST


CITY           SKY/WX    TMP DP  RH WIND       PRES   REMARKS
NIAGARA FALLS  CLOUDY    78  59  51 E10       29.76F
BUFFALO        CLOUDY    77  58  51 VRB3      29.76F
DUNKIRK        MOSUNNY   74  60  61 NE9       29.77F
JAMESTOWN      CLOUDY    73  57  56 E6        29.79F
WELLSVILLE     PTSUNNY   73  58  59 S6        29.85F
ROCHESTER      CLOUDY    76  60  57 SE8G16    29.79F
PENN YAN       CLOUDY    75  55  49 S10       29.81F
$$

             KEY
       WCI = WIND CHILL INDEX
       VSB = VISIBILITY
       HX  = HEAT INDEX
$$




USA.gov is the U.S. government's official web portal to all federal, state and local government web resources and services.